Time,TemperatureF,DewpointF,PressureIn,WindDirection,WindDirectionDegrees,WindSpeedMPH,WindSpeedGustMPH,Humidity,HourlyPrecipIn,Conditions,Clouds,dailyrainin,SoftwareType,DateUTC
2013-01-08 00:00:00,27.9,24.0,30.28,South,175,4.0,5.0,85,0.00,,---,0.00,VWS V14.01,2013-01-08 05:00:00,
2013-01-08 00:01:00,27.9,24.0,30.28,South,175,2.0,5.0,85,0.00,,---,0.00,VWS V14.01,2013-01-08 05:01:00,
2013-01-08 00:03:00,27.9,24.0,30.28,South,170,0.0,6.0,85,0.00,,---,0.00,VWS V14.01,2013-01-08 05:03:00,
2013-01-08 00:08:00,27.8,23.9,30.28,South,175,1.0,6.0,85,0.00,,---,0.00,VWS V14.01,2013-01-08 05:08:00,
2013-01-08 00:13:00,27.8,24.2,30.28,South,187,2.0,6.0,86,0.00,,---,0.00,VWS V14.01,2013-01-08 05:13:00,
2013-01-08 00:18:00,27.8,24.2,30.28,South,180,0.0,7.0,86,0.00,,---,0.00,VWS V14.01,2013-01-08 05:18:00,
2013-01-08 00:23:00,27.8,24.2,30.28,South,180,1.0,7.0,86,0.00,,---,0.00,VWS V14.01,2013-01-08 05:23:00,
2013-01-08 00:28:00,27.8,24.2,30.28,SSW,199,3.0,3.0,86,0.00,,---,0.00,VWS V14.01,2013-01-08 05:28:00,
2013-01-08 00:30:00,27.8,24.2,30.28,South,188,0.0,7.0,86,0.00,,---,0.00,VWS V14.01,2013-01-08 05:30:00,
2013-01-08 00:33:00,27.7,24.1,30.27,ESE,109,1.0,5.0,86,0.00,,---,0.00,VWS V14.01,2013-01-08 05:33:00,
2013-01-08 00:38:00,27.6,24.0,30.27,SSW,211,0.0,5.0,86,0.00,,---,0.00,VWS V14.01,2013-01-08 05:38:00,
2013-01-08 00:43:00,27.5,23.9,30.27,SSW,211,1.0,5.0,86,0.00,,---,0.00,VWS V14.01,2013-01-08 05:43:00,
2013-01-08 00:48:00,27.4,23.8,30.27,South,180,0.0,5.0,86,0.00,,---,0.00,VWS V14.01,2013-01-08 05:48:00,
2013-01-08 00:53:00,27.4,23.8,30.27,SSW,201,0.0,5.0,86,0.00,,---,0.00,VWS V14.01,2013-01-08 05:53:00,
2013-01-08 00:58:00,27.4,23.8,30.28,SSW,199,0.0,0.0,86,0.00,,---,0.00,VWS V14.01,2013-01-08 05:58:00,
2013-01-08 01:00:00,27.4,23.8,30.28,SSW,199,0.0,5.0,86,0.00,,---,0.00,VWS V14.01,2013-01-08 06:00:00,
2013-01-08 01:03:00,27.3,23.7,30.28,SSW,198,0.0,2.0,86,0.00,,---,0.00,VWS V14.01,2013-01-08 06:03:00,
2013-01-08 01:08:00,27.2,23.6,30.28,SSW,198,0.0,2.0,86,0.00,,---,0.00,VWS V14.01,2013-01-08 06:08:00,
2013-01-08 01:13:00,27.1,23.8,30.28,South,170,0.0,4.0,87,0.00,,---,0.00,VWS V14.01,2013-01-08 06:13:00,
2013-01-08 01:18:00,27.1,23.8,30.28,South,170,0.0,4.0,87,0.00,,---,0.00,VWS V14.01,2013-01-08 06:18:00,
2013-01-08 01:23:00,27.0,23.6,30.28,SSW,192,0.0,4.0,87,0.00,,---,0.00,VWS V14.01,2013-01-08 06:23:00,
2013-01-08 01:28:00,26.9,23.6,30.28,SSE,159,0.0,1.0,87,0.00,,---,0.00,VWS V14.01,2013-01-08 06:28:00,
2013-01-08 01:30:00,26.9,23.6,30.28,SSE,151,0.0,4.0,87,0.00,,---,0.00,VWS V14.01,2013-01-08 06:30:00,
2013-01-08 01:33:00,26.8,23.5,30.28,SSE,157,0.0,5.0,87,0.00,,---,0.00,VWS V14.01,2013-01-08 06:33:00,
2013-01-08 01:38:00,26.7,23.4,30.28,SSE,148,0.0,5.0,87,0.00,,---,0.00,VWS V14.01,2013-01-08 06:38:00,
2013-01-08 01:43:00,26.7,23.4,30.28,South,190,0.0,5.0,87,0.00,,---,0.00,VWS V14.01,2013-01-08 06:43:00,
2013-01-08 01:48:00,26.7,23.4,30.28,South,190,0.0,5.0,87,0.00,,---,0.00,VWS V14.01,2013-01-08 06:48:00,
2013-01-08 01:53:00,26.5,23.2,30.29,SSW,201,0.0,5.0,87,0.00,,---,0.00,VWS V14.01,2013-01-08 06:53:00,
2013-01-08 01:58:00,26.5,23.2,30.29,SSW,201,0.0,2.0,87,0.00,,---,0.00,VWS V14.01,2013-01-08 06:58:00,
2013-01-08 02:00:00,26.5,23.2,30.29,SSW,201,0.0,5.0,87,0.00,,---,0.00,VWS V14.01,2013-01-08 07:00:00,
2013-01-08 02:03:00,26.4,23.1,30.29,SSW,207,0.0,2.0,87,0.00,,---,0.00,VWS V14.01,2013-01-08 07:03:00,
2013-01-08 02:09:00,26.3,23.0,30.29,SSW,207,1.0,2.0,87,0.00,,---,0.00,VWS V14.01,2013-01-08 07:09:00,
2013-01-08 02:14:00,26.1,22.8,30.29,SSW,207,0.0,2.0,87,0.00,,---,0.00,VWS V14.01,2013-01-08 07:14:00,
2013-01-08 02:19:00,25.9,22.6,30.29,SSW,207,0.0,2.0,87,0.00,,---,0.00,VWS V14.01,2013-01-08 07:19:00,
2013-01-08 02:24:00,25.9,22.8,30.29,SSE,165,0.0,3.0,88,0.00,,---,0.00,VWS V14.01,2013-01-08 07:24:00,
2013-01-08 02:29:00,25.9,22.8,30.29,SE,135,2.0,2.0,88,0.00,,---,0.00,VWS V14.01,2013-01-08 07:29:00,
2013-01-08 02:30:00,25.9,22.8,30.29,SSE,152,0.0,3.0,88,0.00,,---,0.00,VWS V14.01,2013-01-08 07:30:00,
2013-01-08 02:34:00,25.9,22.8,30.29,South,180,0.0,2.0,88,0.00,,---,0.00,VWS V14.01,2013-01-08 07:34:00,
2013-01-08 02:39:00,25.8,22.7,30.29,South,180,0.0,2.0,88,0.00,,---,0.00,VWS V14.01,2013-01-08 07:39:00,
2013-01-08 02:44:00,25.7,22.6,30.28,South,180,0.0,2.0,88,0.00,,---,0.00,VWS V14.01,2013-01-08 07:44:00,
2013-01-08 02:49:00,25.6,22.5,30.28,South,180,0.0,2.0,88,0.00,,---,0.00,VWS V14.01,2013-01-08 07:49:00,
2013-01-08 02:54:00,25.6,22.5,30.28,SSE,161,0.0,2.0,88,0.00,,---,0.00,VWS V14.01,2013-01-08 07:54:00,
2013-01-08 02:59:00,25.4,22.4,30.29,ESE,111,0.0,2.0,88,0.00,,---,0.00,VWS V14.01,2013-01-08 07:59:00,
2013-01-08 03:00:00,25.5,22.5,30.28,South,180,0.0,3.0,88,0.00,,---,0.00,VWS V14.01,2013-01-08 08:00:00,
2013-01-08 03:04:00,25.3,22.2,30.29,ESE,111,0.0,2.0,88,0.00,,---,0.00,VWS V14.01,2013-01-08 08:04:00,
2013-01-08 03:09:00,25.0,21.7,30.29,ESE,111,0.0,2.0,87,0.00,,---,0.00,VWS V14.01,2013-01-08 08:09:00,
2013-01-08 03:14:00,24.8,21.8,30.28,ESE,111,0.0,2.0,88,0.00,,---,0.00,VWS V14.01,2013-01-08 08:14:00,
2013-01-08 03:19:00,24.7,21.7,30.28,ESE,111,0.0,2.0,88,0.00,,---,0.00,VWS V14.01,2013-01-08 08:19:00,
2013-01-08 03:24:00,24.3,21.0,30.28,ESE,111,0.0,2.0,87,0.00,,---,0.00,VWS V14.01,2013-01-08 08:24:00,
2013-01-08 03:29:00,24.1,21.1,30.28,ESE,111,0.0,1.0,88,0.00,,---,0.00,VWS V14.01,2013-01-08 08:29:00,
2013-01-08 03:30:00,24.2,21.2,30.28,ESE,111,0.0,2.0,88,0.00,,---,0.00,VWS V14.01,2013-01-08 08:30:00,
2013-01-08 03:34:00,24.0,21.0,30.28,ESE,111,0.0,1.0,88,0.00,,---,0.00,VWS V14.01,2013-01-08 08:34:00,
2013-01-08 03:39:00,24.0,21.2,30.28,ESE,111,0.0,1.0,89,0.00,,---,0.00,VWS V14.01,2013-01-08 08:39:00,
2013-01-08 03:44:00,24.0,21.2,30.28,ESE,111,0.0,1.0,89,0.00,,---,0.00,VWS V14.01,2013-01-08 08:44:00,
2013-01-08 03:49:00,23.9,21.1,30.28,ESE,111,0.0,1.0,89,0.00,,---,0.00,VWS V14.01,2013-01-08 08:49:00,
2013-01-08 03:54:00,23.8,21.0,30.28,ESE,111,0.0,2.0,89,0.00,,---,0.00,VWS V14.01,2013-01-08 08:54:00,
2013-01-08 03:59:00,23.7,20.9,30.28,ESE,111,0.0,0.0,89,0.00,,---,0.00,VWS V14.01,2013-01-08 08:59:00,
2013-01-08 04:00:00,23.7,20.9,30.28,ESE,111,0.0,2.0,89,0.00,,---,0.00,VWS V14.01,2013-01-08 09:00:00,
2013-01-08 04:04:00,23.4,20.6,30.29,ESE,111,0.0,2.0,89,0.00,,---,0.00,VWS V14.01,2013-01-08 09:04:00,
2013-01-08 04:10:00,22.9,19.9,30.29,ESE,111,0.0,2.0,88,0.00,,---,0.00,VWS V14.01,2013-01-08 09:10:00,
2013-01-08 04:15:00,22.8,20.0,30.29,ESE,111,0.0,2.0,89,0.00,,---,0.00,VWS V14.01,2013-01-08 09:15:00,
2013-01-08 04:20:00,22.6,19.9,30.29,ESE,111,0.0,2.0,89,0.00,,---,0.00,VWS V14.01,2013-01-08 09:20:00,
2013-01-08 04:25:00,22.5,19.8,30.29,ESE,111,2.0,2.0,89,0.00,,---,0.00,VWS V14.01,2013-01-08 09:25:00,
2013-01-08 04:30:00,22.5,20.0,30.29,ESE,111,1.0,2.0,90,0.00,,---,0.00,VWS V14.01,2013-01-08 09:30:00,
2013-01-08 04:35:00,22.5,20.3,30.29,ESE,111,1.0,2.0,91,0.00,,---,0.00,VWS V14.01,2013-01-08 09:35:00,
2013-01-08 04:40:00,22.4,20.2,30.30,ESE,111,0.0,2.0,91,0.00,,---,0.00,VWS V14.01,2013-01-08 09:40:00,
2013-01-08 04:45:00,22.4,20.2,30.30,ESE,111,1.0,2.0,91,0.00,,---,0.00,VWS V14.01,2013-01-08 09:45:00,
2013-01-08 04:50:00,22.4,20.2,30.29,ESE,111,0.0,2.0,91,0.00,,---,0.00,VWS V14.01,2013-01-08 09:50:00,
2013-01-08 04:55:00,22.3,20.1,30.29,ESE,111,0.0,2.0,91,0.00,,---,0.00,VWS V14.01,2013-01-08 09:55:00,
2013-01-08 05:00:00,22.2,20.0,30.29,ESE,111,0.0,0.0,91,0.00,,---,0.00,VWS V14.01,2013-01-08 10:00:00,
2013-01-08 05:05:00,22.2,20.0,30.30,ESE,111,0.0,0.0,91,0.00,,---,0.00,VWS V14.01,2013-01-08 10:05:00,
2013-01-08 05:10:00,22.1,19.9,30.30,ESE,111,0.0,0.0,91,0.00,,---,0.00,VWS V14.01,2013-01-08 10:10:00,
2013-01-08 05:15:00,22.0,19.8,30.30,ESE,111,0.0,0.0,91,0.00,,---,0.00,VWS V14.01,2013-01-08 10:15:00,
2013-01-08 05:20:00,22.0,19.8,30.30,ESE,111,0.0,0.0,91,0.00,,---,0.00,VWS V14.01,2013-01-08 10:20:00,
2013-01-08 05:25:00,21.9,19.9,30.30,ESE,111,0.0,0.0,92,0.00,,---,0.00,VWS V14.01,2013-01-08 10:25:00,
2013-01-08 05:30:00,21.8,19.6,30.30,ESE,111,0.0,0.0,91,0.00,,---,0.00,VWS V14.01,2013-01-08 10:30:00,
2013-01-08 05:35:00,21.7,19.5,30.30,ESE,111,0.0,0.0,91,0.00,,---,0.00,VWS V14.01,2013-01-08 10:35:00,
2013-01-08 05:40:00,21.6,19.4,30.30,ESE,111,0.0,0.0,91,0.00,,---,0.00,VWS V14.01,2013-01-08 10:40:00,
2013-01-08 05:45:00,21.5,19.5,30.30,ESE,111,0.0,0.0,92,0.00,,---,0.00,VWS V14.01,2013-01-08 10:45:00,
2013-01-08 05:50:00,21.5,19.5,30.30,ESE,111,0.0,0.0,92,0.00,,---,0.00,VWS V14.01,2013-01-08 10:50:00,
2013-01-08 05:55:00,21.4,19.4,30.30,ESE,111,0.0,0.0,92,0.00,,---,0.00,VWS V14.01,2013-01-08 10:55:00,
2013-01-08 06:00:00,21.2,19.2,30.30,ESE,111,0.0,0.0,92,0.00,,---,0.00,VWS V14.01,2013-01-08 11:00:00,
2013-01-08 06:05:00,21.1,19.1,30.31,ESE,111,0.0,0.0,92,0.00,,---,0.00,VWS V14.01,2013-01-08 11:05:00,
2013-01-08 06:10:00,21.1,19.1,30.31,ESE,111,0.0,0.0,92,0.00,,---,0.00,VWS V14.01,2013-01-08 11:10:00,
2013-01-08 06:15:00,21.2,19.2,30.31,ESE,111,0.0,0.0,92,0.00,,---,0.00,VWS V14.01,2013-01-08 11:15:00,
2013-01-08 06:20:00,21.1,19.1,30.31,ESE,111,0.0,0.0,92,0.00,,---,0.00,VWS V14.01,2013-01-08 11:20:00,
2013-01-08 06:25:00,21.1,19.1,30.31,ESE,111,0.0,0.0,92,0.00,,---,0.00,VWS V14.01,2013-01-08 11:25:00,
2013-01-08 06:30:00,21.0,19.0,30.31,ESE,111,0.0,0.0,92,0.00,,---,0.00,VWS V14.01,2013-01-08 11:30:00,
2013-01-08 06:35:00,21.0,19.0,30.31,ESE,111,0.0,0.0,92,0.00,,---,0.00,VWS V14.01,2013-01-08 11:35:00,
2013-01-08 06:40:00,21.0,19.3,30.31,ESE,111,0.0,0.0,93,0.00,,---,0.00,VWS V14.01,2013-01-08 11:40:00,
2013-01-08 06:45:00,21.0,19.3,30.31,ESE,111,1.0,1.0,93,0.00,,---,0.00,VWS V14.01,2013-01-08 11:45:00,
2013-01-08 06:50:00,20.9,19.2,30.31,ESE,111,1.0,1.0,93,0.00,,---,0.00,VWS V14.01,2013-01-08 11:50:00,
2013-01-08 06:55:00,20.8,19.1,30.32,ESE,111,0.0,2.0,93,0.00,,---,0.00,VWS V14.01,2013-01-08 11:55:00,
2013-01-08 07:00:00,20.8,19.1,30.32,ESE,111,0.0,1.0,93,0.00,,---,0.00,VWS V14.01,2013-01-08 12:00:00,
2013-01-08 07:05:00,20.8,19.1,30.32,ESE,111,0.0,1.0,93,0.00,,---,0.00,VWS V14.01,2013-01-08 12:05:00,
2013-01-08 07:10:00,20.9,19.2,30.32,ESE,111,0.0,2.0,93,0.00,,---,0.00,VWS V14.01,2013-01-08 12:10:00,
2013-01-08 07:15:00,21.0,19.3,30.32,ESE,111,0.0,2.0,93,0.00,,---,0.00,VWS V14.01,2013-01-08 12:15:00,
2013-01-08 07:20:00,21.1,19.4,30.32,ESE,111,0.0,2.0,93,0.00,,---,0.00,VWS V14.01,2013-01-08 12:20:00,
2013-01-08 07:25:00,21.1,19.4,30.32,ESE,111,0.0,2.0,93,0.00,,---,0.00,VWS V14.01,2013-01-08 12:25:00,
2013-01-08 07:30:00,21.1,19.4,30.33,ESE,111,0.0,1.0,93,0.00,,---,0.00,VWS V14.01,2013-01-08 12:30:00,
2013-01-08 07:35:00,21.2,19.5,30.33,ESE,111,0.0,1.0,93,0.00,,---,0.00,VWS V14.01,2013-01-08 12:35:00,
2013-01-08 07:40:00,21.2,19.5,30.33,ESE,111,0.0,1.0,93,0.00,,---,0.00,VWS V14.01,2013-01-08 12:40:00,
2013-01-08 07:45:00,21.3,19.6,30.33,ESE,111,0.0,1.0,93,0.00,,---,0.00,VWS V14.01,2013-01-08 12:45:00,
2013-01-08 07:50:00,21.3,19.6,30.33,ESE,111,1.0,1.0,93,0.00,,---,0.00,VWS V14.01,2013-01-08 12:50:00,
2013-01-08 07:55:00,21.2,19.5,30.33,ESE,111,0.0,1.0,93,0.00,,---,0.00,VWS V14.01,2013-01-08 12:55:00,
2013-01-08 08:00:00,21.1,19.4,30.33,ESE,111,0.0,0.0,93,0.00,,---,0.00,VWS V14.01,2013-01-08 13:00:00,
2013-01-08 08:05:00,21.0,19.3,30.33,ESE,111,0.0,2.0,93,0.00,,---,0.00,VWS V14.01,2013-01-08 13:05:00,
2013-01-08 08:10:00,20.9,19.2,30.33,ESE,111,0.0,2.0,93,0.00,,---,0.00,VWS V14.01,2013-01-08 13:10:00,
2013-01-08 08:15:00,20.8,19.1,30.33,ESE,111,0.0,2.0,93,0.00,,---,0.00,VWS V14.01,2013-01-08 13:15:00,
2013-01-08 08:20:00,20.8,19.1,30.33,ESE,111,0.0,2.0,93,0.00,,---,0.00,VWS V14.01,2013-01-08 13:20:00,
2013-01-08 08:25:00,20.8,19.1,30.34,ESE,111,0.0,2.0,93,0.00,,---,0.00,VWS V14.01,2013-01-08 13:25:00,
2013-01-08 08:30:00,20.8,19.1,30.34,ESE,111,0.0,1.0,93,0.00,,---,0.00,VWS V14.01,2013-01-08 13:30:00,
2013-01-08 08:35:00,21.0,19.3,30.34,ESE,111,0.0,2.0,93,0.00,,---,0.00,VWS V14.01,2013-01-08 13:35:00,
2013-01-08 08:40:00,21.1,19.4,30.34,ESE,111,0.0,2.0,93,0.00,,---,0.00,VWS V14.01,2013-01-08 13:40:00,
2013-01-08 08:46:00,21.2,19.8,30.34,ESE,111,0.0,2.0,94,0.00,,---,0.00,VWS V14.01,2013-01-08 13:46:00,
2013-01-08 08:51:00,21.3,19.9,30.34,ESE,111,1.0,2.0,94,0.00,,---,0.00,VWS V14.01,2013-01-08 13:51:00,
2013-01-08 08:56:00,21.5,20.0,30.34,ESE,111,0.0,2.0,94,0.00,,---,0.00,VWS V14.01,2013-01-08 13:56:00,
2013-01-08 09:00:00,21.5,20.0,30.34,ESE,111,0.0,2.0,94,0.00,,---,0.00,VWS V14.01,2013-01-08 14:00:00,
2013-01-08 09:01:00,21.6,20.1,30.35,ESE,111,0.0,0.0,94,0.00,,---,0.00,VWS V14.01,2013-01-08 14:01:00,
2013-01-08 09:06:00,21.8,20.3,30.34,ESE,111,0.0,0.0,94,0.00,,---,0.00,VWS V14.01,2013-01-08 14:06:00,
2013-01-08 09:10:00,21.9,20.4,30.35,ESE,111,0.0,2.0,94,0.00,,---,0.00,VWS V14.01,2013-01-08 14:10:00,
2013-01-08 09:15:00,22.3,20.8,30.34,ESE,111,0.0,2.0,94,0.00,,---,0.00,VWS V14.01,2013-01-08 14:15:00,
2013-01-08 09:20:00,22.6,21.1,30.34,ESE,111,1.0,2.0,94,0.00,,---,0.00,VWS V14.01,2013-01-08 14:20:00,
2013-01-08 09:26:00,23.1,21.9,30.34,SSW,210,1.0,3.0,95,0.00,,---,0.00,VWS V14.01,2013-01-08 14:26:00,
2013-01-08 09:30:00,23.3,22.1,30.34,SSE,159,0.0,3.0,95,0.00,,---,0.00,VWS V14.01,2013-01-08 14:30:00,
2013-01-08 09:31:00,23.6,22.4,30.35,SSE,159,0.0,1.0,95,0.00,,---,0.00,VWS V14.01,2013-01-08 14:31:00,
2013-01-08 09:36:00,23.6,22.1,30.35,SSE,159,1.0,2.0,94,0.00,,---,0.00,VWS V14.01,2013-01-08 14:36:00,
2013-01-08 09:41:00,23.7,22.2,30.35,SSE,159,0.0,2.0,94,0.00,,---,0.00,VWS V14.01,2013-01-08 14:41:00,
2013-01-08 09:46:00,23.9,22.4,30.36,SSE,159,0.0,2.0,94,0.00,,---,0.00,VWS V14.01,2013-01-08 14:46:00,
2013-01-08 09:51:00,24.4,22.9,30.36,SSE,159,0.0,2.0,94,0.00,,---,0.00,VWS V14.01,2013-01-08 14:51:00,
2013-01-08 09:56:00,25.1,23.6,30.36,SE,145,3.0,3.0,94,0.00,,---,0.00,VWS V14.01,2013-01-08 14:56:00,
2013-01-08 10:00:00,25.3,23.8,30.36,SSE,160,1.0,4.0,94,0.00,,---,0.00,VWS V14.01,2013-01-08 15:00:00,
2013-01-08 10:01:00,25.8,24.3,30.35,SSE,160,0.0,2.0,94,0.00,,---,0.00,VWS V14.01,2013-01-08 15:01:00,
2013-01-08 10:06:00,26.5,25.0,30.36,SSE,149,0.0,3.0,94,0.00,,---,0.00,VWS V14.01,2013-01-08 15:06:00,
2013-01-08 10:11:00,27.2,25.7,30.36,ESE,107,0.0,3.0,94,0.00,,---,0.00,VWS V14.01,2013-01-08 15:11:00,
2013-01-08 10:16:00,27.6,25.6,30.36,ESE,108,0.0,3.0,92,0.00,,---,0.00,VWS V14.01,2013-01-08 15:16:00,
2013-01-08 10:21:00,28.4,26.1,30.35,SE,146,0.0,5.0,91,0.00,,---,0.00,VWS V14.01,2013-01-08 15:21:00,
2013-01-08 10:26:00,29.1,26.5,30.36,ESE,108,0.0,5.0,90,0.00,,---,0.00,VWS V14.01,2013-01-08 15:26:00,
2013-01-08 10:30:00,29.3,26.5,30.36,SSE,148,0.0,5.0,89,0.00,,---,0.00,VWS V14.01,2013-01-08 15:30:00,
2013-01-08 10:31:00,29.9,26.5,30.36,SE,142,1.0,3.0,87,0.00,,---,0.00,VWS V14.01,2013-01-08 15:31:00,
2013-01-08 10:36:00,30.6,26.6,30.36,South,190,0.0,3.0,85,0.00,,---,0.00,VWS V14.01,2013-01-08 15:36:00,
2013-01-08 10:41:00,31.5,26.6,30.36,South,180,2.0,4.0,82,0.00,,---,0.00,VWS V14.01,2013-01-08 15:41:00,
2013-01-08 10:46:00,32.2,26.4,30.35,SSW,194,1.0,4.0,79,0.00,,---,0.00,VWS V14.01,2013-01-08 15:46:00,
2013-01-08 10:51:00,32.8,26.4,30.35,SSW,205,1.0,5.0,77,0.00,,---,0.00,VWS V14.01,2013-01-08 15:51:00,
2013-01-08 10:56:00,33.3,26.9,30.35,SSE,166,2.0,5.0,77,0.00,,---,0.00,VWS V14.01,2013-01-08 15:56:00,
2013-01-08 11:00:00,33.4,26.7,30.35,SSE,163,3.0,5.0,76,0.00,,---,0.00,VWS V14.01,2013-01-08 16:00:00,
2013-01-08 11:01:00,33.7,26.3,30.35,South,190,4.0,6.0,74,0.00,,---,0.00,VWS V14.01,2013-01-08 16:01:00,
2013-01-08 11:06:00,34.1,26.7,30.35,ESE,122,3.0,6.0,74,0.00,,---,0.00,VWS V14.01,2013-01-08 16:06:00,
2013-01-08 11:11:00,34.4,26.7,30.34,SSW,204,3.0,6.0,73,0.00,,---,0.00,VWS V14.01,2013-01-08 16:11:00,
2013-01-08 11:16:00,34.7,26.6,30.34,SSW,197,1.0,6.0,72,0.00,,---,0.00,VWS V14.01,2013-01-08 16:16:00,
2013-01-08 11:21:00,34.8,26.4,30.35,SSW,202,3.0,6.0,71,0.00,,---,0.00,VWS V14.01,2013-01-08 16:21:00,
2013-01-08 11:26:00,35.1,26.7,30.35,South,175,2.0,6.0,71,0.00,,---,0.00,VWS V14.01,2013-01-08 16:26:00,
2013-01-08 11:30:00,35.1,26.7,30.34,South,175,0.0,6.0,71,0.00,,---,0.00,VWS V14.01,2013-01-08 16:30:00,
2013-01-08 11:31:00,35.3,26.5,30.34,SSW,201,0.0,3.0,70,0.00,,---,0.00,VWS V14.01,2013-01-08 16:31:00,
2013-01-08 11:36:00,35.5,26.7,30.34,SSE,164,5.0,5.0,70,0.00,,---,0.00,VWS V14.01,2013-01-08 16:36:00,
2013-01-08 11:41:00,35.6,26.5,30.34,SSW,194,3.0,7.0,69,0.00,,---,0.00,VWS V14.01,2013-01-08 16:41:00,
2013-01-08 11:46:00,35.9,26.7,30.34,SSW,205,1.0,7.0,69,0.00,,---,0.00,VWS V14.01,2013-01-08 16:46:00,
2013-01-08 11:51:00,36.3,26.4,30.34,South,170,2.0,7.0,67,0.00,,---,0.00,VWS V14.01,2013-01-08 16:51:00,
2013-01-08 11:56:00,36.6,26.7,30.34,SSW,202,2.0,7.0,67,0.00,,---,0.00,VWS V14.01,2013-01-08 16:56:00,
2013-01-08 12:00:00,36.8,26.5,30.34,South,180,2.0,7.0,66,0.00,,---,0.00,VWS V14.01,2013-01-08 17:00:00,
2013-01-08 12:01:00,37.0,26.7,30.34,SSE,151,4.0,6.0,66,0.00,,---,0.00,VWS V14.01,2013-01-08 17:01:00,
2013-01-08 12:06:00,37.6,27.3,30.33,SSE,148,4.0,6.0,66,0.00,,---,0.00,VWS V14.01,2013-01-08 17:06:00,
2013-01-08 12:11:00,38.3,27.6,30.34,SE,144,1.0,6.0,65,0.00,,---,0.00,VWS V14.01,2013-01-08 17:11:00,
2013-01-08 12:16:00,38.6,27.5,30.33,SSW,195,2.0,7.0,64,0.00,,---,0.00,VWS V14.01,2013-01-08 17:16:00,
2013-01-08 12:21:00,38.6,27.5,30.34,SE,146,0.0,7.0,64,0.00,,---,0.00,VWS V14.01,2013-01-08 17:21:00,
2013-01-08 12:26:00,39.1,28.0,30.33,South,189,2.0,7.0,64,0.00,,---,0.00,VWS V14.01,2013-01-08 17:26:00,
2013-01-08 12:30:00,39.2,27.3,30.33,South,175,3.0,7.0,62,0.00,,---,0.00,VWS V14.01,2013-01-08 17:30:00,
2013-01-08 12:31:00,39.2,26.9,30.33,South,188,1.0,5.0,61,0.00,,---,0.00,VWS V14.01,2013-01-08 17:31:00,
2013-01-08 12:36:00,39.2,27.7,30.33,South,175,0.0,5.0,63,0.00,,---,0.00,VWS V14.01,2013-01-08 17:36:00,
2013-01-08 12:41:00,39.4,27.9,30.33,South,170,0.0,6.0,63,0.00,,---,0.00,VWS V14.01,2013-01-08 17:41:00,
2013-01-08 12:46:00,39.8,27.9,30.33,SSE,158,3.0,6.0,62,0.01,,---,0.01,VWS V14.01,2013-01-08 17:46:00,
2013-01-08 12:51:00,39.9,27.2,30.33,SSW,207,2.0,6.0,60,0.01,,---,0.01,VWS V14.01,2013-01-08 17:51:00,
2013-01-08 12:56:00,39.7,27.0,30.33,SW,232,1.0,6.0,60,0.01,,---,0.01,VWS V14.01,2013-01-08 17:56:00,
2013-01-08 13:00:00,39.7,27.0,30.33,SW,232,0.0,6.0,60,0.01,,---,0.01,VWS V14.01,2013-01-08 18:00:00,
2013-01-08 13:01:00,39.9,27.2,30.33,WSW,249,1.0,4.0,60,0.01,,---,0.01,VWS V14.01,2013-01-08 18:01:00,
2013-01-08 13:06:00,40.4,27.2,30.33,South,180,0.0,5.0,59,0.02,,---,0.02,VWS V14.01,2013-01-08 18:06:00,
2013-01-08 13:12:00,40.7,26.7,30.33,SSW,204,2.0,5.0,57,0.02,,---,0.02,VWS V14.01,2013-01-08 18:12:00,
2013-01-08 13:17:00,41.1,27.5,30.32,SSW,194,1.0,5.0,58,0.02,,---,0.02,VWS V14.01,2013-01-08 18:17:00,
2013-01-08 13:22:00,41.1,27.0,30.32,SSW,199,0.0,6.0,57,0.02,,---,0.02,VWS V14.01,2013-01-08 18:22:00,
2013-01-08 13:27:00,41.3,27.2,30.32,SSW,199,1.0,6.0,57,0.03,,---,0.03,VWS V14.01,2013-01-08 18:27:00,
2013-01-08 13:30:00,41.3,27.2,30.32,SSW,203,3.0,6.0,57,0.03,,---,0.03,VWS V14.01,2013-01-08 18:30:00,
2013-01-08 13:32:00,41.4,27.3,30.32,East,100,4.0,5.0,57,0.03,,---,0.03,VWS V14.01,2013-01-08 18:32:00,
2013-01-08 13:37:00,41.6,26.6,30.32,SSE,148,0.0,5.0,55,0.03,,---,0.03,VWS V14.01,2013-01-08 18:37:00,
2013-01-08 13:42:00,41.8,26.8,30.32,SE,135,2.0,5.0,55,0.03,,---,0.03,VWS V14.01,2013-01-08 18:42:00,
2013-01-08 13:47:00,42.0,27.0,30.32,SE,142,0.0,5.0,55,0.03,,---,0.03,VWS V14.01,2013-01-08 18:47:00,
2013-01-08 13:52:00,42.1,27.1,30.32,SSW,213,3.0,5.0,55,0.03,,---,0.03,VWS V14.01,2013-01-08 18:52:00,
2013-01-08 13:57:00,41.9,26.0,30.32,SW,214,4.0,5.0,53,0.03,,---,0.03,VWS V14.01,2013-01-08 18:57:00,
2013-01-08 14:00:00,41.9,26.0,30.32,SSW,198,4.0,5.0,53,0.03,,---,0.03,VWS V14.01,2013-01-08 19:00:00,
2013-01-08 14:02:00,41.9,26.0,30.32,South,188,2.0,7.0,53,0.02,,---,0.03,VWS V14.01,2013-01-08 19:02:00,
2013-01-08 14:07:00,41.9,26.9,30.32,South,191,5.0,7.0,55,0.02,,---,0.03,VWS V14.01,2013-01-08 19:07:00,
2013-01-08 14:12:00,41.8,25.9,30.33,SW,222,0.0,7.0,53,0.02,,---,0.03,VWS V14.01,2013-01-08 19:12:00,
2013-01-08 14:17:00,41.5,25.2,30.33,SSE,155,3.0,7.0,52,0.02,,---,0.03,VWS V14.01,2013-01-08 19:17:00,
2013-01-08 14:22:00,41.7,25.9,30.33,South,185,3.0,7.0,53,0.02,,---,0.03,VWS V14.01,2013-01-08 19:22:00,
2013-01-08 14:27:00,41.9,26.5,30.33,South,180,0.0,7.0,54,0.02,,---,0.03,VWS V14.01,2013-01-08 19:27:00,
2013-01-08 14:30:00,41.9,26.0,30.33,South,180,2.0,7.0,53,0.02,,---,0.03,VWS V14.01,2013-01-08 19:30:00,
2013-01-08 14:32:00,41.8,25.5,30.33,SSE,150,3.0,4.0,52,0.00,,---,0.03,VWS V14.01,2013-01-08 19:32:00,
2013-01-08 14:37:00,41.9,26.0,30.32,SSW,201,1.0,5.0,53,0.00,,---,0.03,VWS V14.01,2013-01-08 19:37:00,
2013-01-08 14:42:00,41.8,25.5,30.32,SW,226,0.0,5.0,52,0.00,,---,0.03,VWS V14.01,2013-01-08 19:42:00,
2013-01-08 14:47:00,41.8,25.0,30.33,SSW,195,0.0,5.0,51,0.00,,---,0.03,VWS V14.01,2013-01-08 19:47:00,
2013-01-08 14:52:00,42.2,27.2,30.33,SSW,195,1.0,5.0,55,0.00,,---,0.03,VWS V14.01,2013-01-08 19:52:00,
2013-01-08 14:57:00,42.5,25.7,30.33,SE,138,1.0,5.0,51,0.00,,---,0.03,VWS V14.01,2013-01-08 19:57:00,
2013-01-08 15:00:00,42.5,25.7,30.33,SE,138,1.0,5.0,51,0.00,,---,0.03,VWS V14.01,2013-01-08 20:00:00,
2013-01-08 15:02:00,42.5,25.7,30.33,SSE,160,1.0,5.0,51,0.00,,---,0.03,VWS V14.01,2013-01-08 20:02:00,
2013-01-08 15:07:00,42.4,25.6,30.33,South,180,1.0,5.0,51,0.00,,---,0.03,VWS V14.01,2013-01-08 20:07:00,
2013-01-08 15:12:00,42.4,26.0,30.33,SE,133,0.0,5.0,52,0.00,,---,0.03,VWS V14.01,2013-01-08 20:12:00,
2013-01-08 15:17:00,42.3,25.5,30.33,SSE,164,1.0,5.0,51,0.00,,---,0.03,VWS V14.01,2013-01-08 20:17:00,
2013-01-08 15:22:00,42.0,25.2,30.33,SW,218,1.0,5.0,51,0.00,,---,0.03,VWS V14.01,2013-01-08 20:22:00,
2013-01-08 15:27:00,41.9,24.1,30.33,SSW,201,3.0,5.0,49,0.00,,---,0.03,VWS V14.01,2013-01-08 20:27:00,
2013-01-08 15:30:00,41.8,23.6,30.33,SSW,201,1.0,5.0,48,0.00,,---,0.03,VWS V14.01,2013-01-08 20:30:00,
2013-01-08 15:32:00,41.8,24.5,30.33,SSW,201,2.0,2.0,50,0.00,,---,0.03,VWS V14.01,2013-01-08 20:32:00,
2013-01-08 15:37:00,41.8,23.6,30.34,WSW,244,0.0,4.0,48,0.00,,---,0.03,VWS V14.01,2013-01-08 20:37:00,
2013-01-08 15:42:00,41.8,24.5,30.33,South,186,1.0,4.0,50,0.00,,---,0.03,VWS V14.01,2013-01-08 20:42:00,
2013-01-08 15:47:00,41.7,25.4,30.34,South,186,0.0,4.0,52,0.00,,---,0.03,VWS V14.01,2013-01-08 20:47:00,
2013-01-08 15:52:00,41.6,24.8,30.34,South,186,2.0,4.0,51,0.00,,---,0.03,VWS V14.01,2013-01-08 20:52:00,
2013-01-08 15:57:00,41.6,24.8,30.34,South,180,2.0,4.0,51,0.00,,---,0.03,VWS V14.01,2013-01-08 20:57:00,
2013-01-08 16:00:00,41.6,24.4,30.34,South,180,2.0,4.0,50,0.00,,---,0.03,VWS V14.01,2013-01-08 21:00:00,
2013-01-08 16:02:00,41.5,24.3,30.34,SSE,151,0.0,4.0,50,0.00,,---,0.03,VWS V14.01,2013-01-08 21:02:00,
2013-01-08 16:07:00,41.4,23.7,30.34,SSW,192,0.0,4.0,49,0.00,,---,0.03,VWS V14.01,2013-01-08 21:07:00,
2013-01-08 16:12:00,41.3,24.1,30.34,SSW,192,0.0,4.0,50,0.00,,---,0.03,VWS V14.01,2013-01-08 21:12:00,
2013-01-08 16:17:00,41.2,24.5,30.34,SSW,192,0.0,4.0,51,0.00,,---,0.03,VWS V14.01,2013-01-08 21:17:00,
2013-01-08 16:22:00,41.0,23.8,30.34,SSW,192,0.0,4.0,50,0.00,,---,0.03,VWS V14.01,2013-01-08 21:22:00,
2013-01-08 16:27:00,40.9,24.6,30.34,SSW,192,0.0,4.0,52,0.00,,---,0.03,VWS V14.01,2013-01-08 21:27:00,
2013-01-08 16:30:00,40.9,24.6,30.34,SSW,192,1.0,4.0,52,0.00,,---,0.03,VWS V14.01,2013-01-08 21:30:00,
2013-01-08 16:32:00,40.7,24.5,30.34,South,186,0.0,6.0,52,0.00,,---,0.03,VWS V14.01,2013-01-08 21:32:00,
2013-01-08 16:37:00,40.6,24.8,30.34,South,186,0.0,6.0,53,0.00,,---,0.03,VWS V14.01,2013-01-08 21:37:00,
2013-01-08 16:42:00,40.5,25.2,30.34,South,186,0.0,6.0,54,0.00,,---,0.03,VWS V14.01,2013-01-08 21:42:00,
2013-01-08 16:47:00,40.2,24.9,30.35,South,186,0.0,6.0,54,0.00,,---,0.03,VWS V14.01,2013-01-08 21:47:00,
2013-01-08 16:52:00,40.0,25.1,30.34,South,186,0.0,6.0,55,0.00,,---,0.03,VWS V14.01,2013-01-08 21:52:00,
2013-01-08 16:57:00,39.8,25.0,30.34,South,186,0.0,6.0,55,0.00,,---,0.03,VWS V14.01,2013-01-08 21:57:00,
2013-01-08 17:00:00,39.8,25.0,30.34,South,186,0.0,6.0,55,0.00,,---,0.03,VWS V14.01,2013-01-08 22:00:00,
2013-01-08 17:02:00,39.6,24.8,30.34,South,186,0.0,2.0,55,0.00,,---,0.03,VWS V14.01,2013-01-08 22:02:00,
2013-01-08 17:07:00,39.4,25.0,30.34,South,185,0.0,2.0,56,0.00,,---,0.03,VWS V14.01,2013-01-08 22:07:00,
2013-01-08 17:12:00,39.2,25.3,30.34,South,180,2.0,3.0,57,0.00,,---,0.03,VWS V14.01,2013-01-08 22:12:00,
2013-01-08 17:17:00,38.9,25.8,30.34,South,170,0.0,3.0,59,0.00,,---,0.03,VWS V14.01,2013-01-08 22:17:00,
2013-01-08 17:22:00,38.8,25.7,30.34,SSW,202,0.0,4.0,59,0.00,,---,0.03,VWS V14.01,2013-01-08 22:22:00,
2013-01-08 17:27:00,38.7,26.0,30.34,SSW,199,0.0,4.0,60,0.00,,---,0.03,VWS V14.01,2013-01-08 22:27:00,
2013-01-08 17:30:00,38.7,26.0,30.34,SSW,199,1.0,4.0,60,0.00,,---,0.03,VWS V14.01,2013-01-08 22:30:00,
2013-01-08 17:32:00,38.6,26.3,30.34,SW,229,0.0,4.0,61,0.00,,---,0.03,VWS V14.01,2013-01-08 22:32:00,
2013-01-08 17:37:00,38.4,26.5,30.33,SW,229,0.0,4.0,62,0.00,,---,0.03,VWS V14.01,2013-01-08 22:37:00,
2013-01-08 17:42:00,38.2,26.7,30.34,SW,229,0.0,4.0,63,0.00,,---,0.03,VWS V14.01,2013-01-08 22:42:00,
2013-01-08 17:47:00,38.0,26.9,30.34,SW,229,0.0,4.0,64,0.00,,---,0.03,VWS V14.01,2013-01-08 22:47:00,
2013-01-08 17:52:00,37.8,27.1,30.34,SW,229,0.0,4.0,65,0.00,,---,0.03,VWS V14.01,2013-01-08 22:52:00,
2013-01-08 17:57:00,37.6,27.3,30.34,SW,229,0.0,4.0,66,0.00,,---,0.03,VWS V14.01,2013-01-08 22:57:00,
2013-01-08 18:00:00,37.5,27.2,30.34,SW,229,0.0,4.0,66,0.00,,---,0.03,VWS V14.01,2013-01-08 23:00:00,
2013-01-08 18:02:00,37.3,27.4,30.34,SW,229,0.0,0.0,67,0.00,,---,0.03,VWS V14.01,2013-01-08 23:02:00,
2013-01-08 18:07:00,37.0,27.4,30.34,SW,229,0.0,0.0,68,0.00,,---,0.03,VWS V14.01,2013-01-08 23:07:00,
2013-01-08 18:12:00,36.6,27.0,30.34,SW,229,0.0,1.0,68,0.00,,---,0.03,VWS V14.01,2013-01-08 23:12:00,
2013-01-08 18:17:00,36.4,27.2,30.34,SW,229,0.0,1.0,69,0.00,,---,0.03,VWS V14.01,2013-01-08 23:17:00,
2013-01-08 18:22:00,36.2,27.4,30.34,SW,229,0.0,1.0,70,0.00,,---,0.03,VWS V14.01,2013-01-08 23:22:00,
2013-01-08 18:27:00,36.0,27.2,30.34,SW,229,0.0,1.0,70,0.00,,---,0.03,VWS V14.01,2013-01-08 23:27:00,
2013-01-08 18:30:00,36.0,27.2,30.34,SW,229,0.0,1.0,70,0.00,,---,0.03,VWS V14.01,2013-01-08 23:30:00,
2013-01-08 18:32:00,35.7,27.2,30.34,SW,229,0.0,1.0,71,0.00,,---,0.03,VWS V14.01,2013-01-08 23:32:00,
2013-01-08 18:37:00,35.5,27.0,30.34,SW,229,0.0,1.0,71,0.00,,---,0.03,VWS V14.01,2013-01-08 23:37:00,
2013-01-08 18:42:00,35.2,27.1,30.34,SW,229,0.0,1.0,72,0.00,,---,0.03,VWS V14.01,2013-01-08 23:42:00,
2013-01-08 18:47:00,35.0,26.9,30.34,SW,229,0.0,1.0,72,0.00,,---,0.03,VWS V14.01,2013-01-08 23:47:00,
2013-01-08 18:52:00,34.8,27.0,30.34,SW,229,0.0,1.0,73,0.00,,---,0.03,VWS V14.01,2013-01-08 23:52:00,
2013-01-08 18:57:00,34.4,27.0,30.34,SW,229,0.0,1.0,74,0.00,,---,0.03,VWS V14.01,2013-01-08 23:57:00,
2013-01-08 19:00:00,34.4,27.0,30.34,SW,229,0.0,1.0,74,0.00,,---,0.03,VWS V14.01,2013-01-09 00:00:00,
2013-01-08 19:02:00,34.1,27.0,30.35,SW,229,0.0,1.0,75,0.00,,---,0.03,VWS V14.01,2013-01-09 00:02:00,
2013-01-08 19:07:00,33.6,26.9,30.34,SW,229,0.0,1.0,76,0.00,,---,0.03,VWS V14.01,2013-01-09 00:07:00,
2013-01-08 19:12:00,33.1,27.0,30.34,SW,229,0.0,1.0,78,0.00,,---,0.03,VWS V14.01,2013-01-09 00:12:00,
2013-01-08 19:17:00,32.5,26.7,30.35,SW,229,0.0,1.0,79,0.00,,---,0.03,VWS V14.01,2013-01-09 00:17:00,
2013-01-08 19:22:00,32.2,26.4,30.34,SW,229,0.0,1.0,79,0.00,,---,0.03,VWS V14.01,2013-01-09 00:22:00,
2013-01-08 19:27:00,31.9,26.4,30.34,SW,229,0.0,1.0,80,0.00,,---,0.03,VWS V14.01,2013-01-09 00:27:00,
2013-01-08 19:30:00,31.9,26.4,30.34,SW,229,0.0,1.0,80,0.00,,---,0.03,VWS V14.01,2013-01-09 00:30:00,
2013-01-08 19:32:00,31.6,26.5,30.34,SW,229,0.0,0.0,81,0.00,,---,0.03,VWS V14.01,2013-01-09 00:32:00,
2013-01-08 19:37:00,31.2,26.1,30.34,SW,229,0.0,1.0,81,0.00,,---,0.03,VWS V14.01,2013-01-09 00:37:00,
2013-01-08 19:42:00,30.9,26.1,30.35,SW,229,1.0,1.0,82,0.00,,---,0.03,VWS V14.01,2013-01-09 00:42:00,
2013-01-08 19:47:00,30.7,25.9,30.35,SW,229,0.0,1.0,82,0.00,,---,0.03,VWS V14.01,2013-01-09 00:47:00,
2013-01-08 19:52:00,30.5,26.0,30.34,SW,229,0.0,1.0,83,0.00,,---,0.03,VWS V14.01,2013-01-09 00:52:00,
2013-01-08 19:58:00,30.3,26.1,30.35,SW,229,0.0,0.0,84,0.00,,---,0.03,VWS V14.01,2013-01-09 00:58:00,
2013-01-08 20:00:00,30.2,26.0,30.34,SW,229,0.0,1.0,84,0.00,,---,0.03,VWS V14.01,2013-01-09 01:00:00,
2013-01-08 20:03:00,30.1,25.9,30.35,SW,229,0.0,1.0,84,0.00,,---,0.03,VWS V14.01,2013-01-09 01:03:00,
2013-01-08 20:08:00,29.9,25.7,30.36,SW,229,0.0,1.0,84,0.00,,---,0.03,VWS V14.01,2013-01-09 01:08:00,
2013-01-08 20:13:00,29.7,25.8,30.36,SW,229,0.0,1.0,85,0.00,,---,0.03,VWS V14.01,2013-01-09 01:13:00,
2013-01-08 20:18:00,29.7,25.8,30.36,SW,229,0.0,1.0,85,0.00,,---,0.03,VWS V14.01,2013-01-09 01:18:00,
2013-01-08 20:23:00,29.6,25.6,30.36,SW,229,0.0,1.0,85,0.00,,---,0.03,VWS V14.01,2013-01-09 01:23:00,
2013-01-08 20:28:00,29.7,25.8,30.36,SW,229,1.0,1.0,85,0.00,,---,0.03,VWS V14.01,2013-01-09 01:28:00,
2013-01-08 20:30:00,29.7,25.8,30.36,SW,229,0.0,1.0,85,0.00,,---,0.03,VWS V14.01,2013-01-09 01:30:00,
2013-01-08 20:33:00,29.7,25.8,30.36,SW,229,0.0,1.0,85,0.00,,---,0.03,VWS V14.01,2013-01-09 01:33:00,
2013-01-08 20:38:00,29.7,25.8,30.36,SW,229,0.0,1.0,85,0.00,,---,0.03,VWS V14.01,2013-01-09 01:38:00,
2013-01-08 20:43:00,29.7,26.0,30.35,SW,229,0.0,1.0,86,0.00,,---,0.03,VWS V14.01,2013-01-09 01:43:00,
2013-01-08 20:48:00,29.7,26.0,30.35,SW,229,0.0,1.0,86,0.00,,---,0.03,VWS V14.01,2013-01-09 01:48:00,
2013-01-08 20:53:00,29.9,26.2,30.35,SW,229,0.0,1.0,86,0.00,,---,0.03,VWS V14.01,2013-01-09 01:53:00,
2013-01-08 20:58:00,29.9,26.2,30.35,SW,229,0.0,0.0,86,0.00,,---,0.03,VWS V14.01,2013-01-09 01:58:00,
2013-01-08 21:00:00,29.9,26.2,30.35,SW,229,0.0,1.0,86,0.00,,---,0.03,VWS V14.01,2013-01-09 02:00:00,
2013-01-08 21:03:00,30.0,26.3,30.34,SW,229,0.0,1.0,86,0.00,,---,0.03,VWS V14.01,2013-01-09 02:03:00,
2013-01-08 21:08:00,29.9,26.2,30.35,SW,229,0.0,1.0,86,0.00,,---,0.03,VWS V14.01,2013-01-09 02:08:00,
2013-01-08 21:13:00,29.9,26.2,30.35,SW,229,0.0,1.0,86,0.00,,---,0.03,VWS V14.01,2013-01-09 02:13:00,
2013-01-08 21:18:00,29.8,26.1,30.35,SW,229,0.0,1.0,86,0.00,,---,0.03,VWS V14.01,2013-01-09 02:18:00,
2013-01-08 21:23:00,29.7,26.0,30.35,SW,229,0.0,1.0,86,0.00,,---,0.03,VWS V14.01,2013-01-09 02:23:00,
2013-01-08 21:28:00,29.5,26.1,30.34,SW,229,0.0,0.0,87,0.00,,---,0.03,VWS V14.01,2013-01-09 02:28:00,
2013-01-08 21:30:00,29.5,25.8,30.34,SW,229,0.0,1.0,86,0.00,,---,0.03,VWS V14.01,2013-01-09 02:30:00,
2013-01-08 21:33:00,29.4,26.0,30.34,SW,229,0.0,0.0,87,0.00,,---,0.03,VWS V14.01,2013-01-09 02:33:00,
2013-01-08 21:38:00,29.3,25.9,30.33,SW,229,0.0,0.0,87,0.00,,---,0.03,VWS V14.01,2013-01-09 02:38:00,
2013-01-08 21:43:00,29.2,25.8,30.33,SW,229,0.0,0.0,87,0.00,,---,0.03,VWS V14.01,2013-01-09 02:43:00,
2013-01-08 21:48:00,29.2,26.1,30.33,SW,229,0.0,0.0,88,0.00,,---,0.03,VWS V14.01,2013-01-09 02:48:00,
2013-01-08 21:53:00,29.1,26.0,30.33,SW,229,0.0,0.0,88,0.00,,---,0.03,VWS V14.01,2013-01-09 02:53:00,
2013-01-08 21:58:00,29.1,26.0,30.33,SW,229,0.0,0.0,88,0.00,,---,0.03,VWS V14.01,2013-01-09 02:58:00,
2013-01-08 22:00:00,29.1,26.0,30.33,SW,229,0.0,1.0,88,0.00,,---,0.03,VWS V14.01,2013-01-09 03:00:00,
2013-01-08 22:03:00,29.2,26.1,30.33,SW,229,0.0,1.0,88,0.00,,---,0.03,VWS V14.01,2013-01-09 03:03:00,
2013-01-08 22:08:00,29.3,26.5,30.33,SW,229,0.0,1.0,89,0.00,,---,0.03,VWS V14.01,2013-01-09 03:08:00,
2013-01-08 22:13:00,29.3,26.5,30.33,SW,229,0.0,1.0,89,0.00,,---,0.03,VWS V14.01,2013-01-09 03:13:00,
2013-01-08 22:18:00,29.4,26.6,30.32,SW,229,0.0,2.0,89,0.00,,---,0.03,VWS V14.01,2013-01-09 03:18:00,
2013-01-08 22:23:00,29.6,26.8,30.31,SW,229,0.0,2.0,89,0.00,,---,0.03,VWS V14.01,2013-01-09 03:23:00,
2013-01-08 22:28:00,29.9,27.1,30.31,SSW,207,0.0,0.0,89,0.00,,---,0.03,VWS V14.01,2013-01-09 03:28:00,
2013-01-08 22:30:00,29.9,27.1,30.32,SSW,207,0.0,3.0,89,0.00,,---,0.03,VWS V14.01,2013-01-09 03:30:00,
2013-01-08 22:33:00,30.1,27.3,30.31,SSW,207,1.0,1.0,89,0.00,,---,0.03,VWS V14.01,2013-01-09 03:33:00,
2013-01-08 22:38:00,30.2,27.1,30.32,SSW,207,0.0,2.0,88,0.00,,---,0.03,VWS V14.01,2013-01-09 03:38:00,
2013-01-08 22:43:00,30.2,27.1,30.32,SSW,207,0.0,2.0,88,0.00,,---,0.03,VWS V14.01,2013-01-09 03:43:00,
2013-01-08 22:48:00,30.2,27.1,30.32,SSW,207,0.0,2.0,88,0.00,,---,0.03,VWS V14.01,2013-01-09 03:48:00,
2013-01-08 22:53:00,30.3,27.2,30.32,SSW,207,0.0,2.0,88,0.00,,---,0.03,VWS V14.01,2013-01-09 03:53:00,
2013-01-08 22:58:00,30.3,27.2,30.32,SSW,207,0.0,1.0,88,0.00,,---,0.03,VWS V14.01,2013-01-09 03:58:00,
2013-01-08 23:00:00,30.3,27.2,30.32,SSW,207,0.0,2.0,88,0.00,,---,0.03,VWS V14.01,2013-01-09 04:00:00,
2013-01-08 23:03:00,30.3,27.2,30.31,SSW,207,0.0,1.0,88,0.00,,---,0.03,VWS V14.01,2013-01-09 04:03:00,
2013-01-08 23:08:00,30.2,27.1,30.31,SSW,207,0.0,1.0,88,0.00,,---,0.03,VWS V14.01,2013-01-09 04:08:00,
2013-01-08 23:13:00,29.9,26.8,30.31,SSW,207,0.0,1.0,88,0.00,,---,0.03,VWS V14.01,2013-01-09 04:13:00,
2013-01-08 23:18:00,29.8,26.7,30.31,SSW,207,0.0,1.0,88,0.00,,---,0.03,VWS V14.01,2013-01-09 04:18:00,
2013-01-08 23:23:00,29.7,26.6,30.31,SSW,207,0.0,1.0,88,0.00,,---,0.03,VWS V14.01,2013-01-09 04:23:00,
2013-01-08 23:28:00,29.8,26.7,30.31,SSW,207,0.0,0.0,88,0.00,,---,0.03,VWS V14.01,2013-01-09 04:28:00,
2013-01-08 23:30:00,29.8,26.7,30.31,SSW,207,0.0,1.0,88,0.00,,---,0.03,VWS V14.01,2013-01-09 04:30:00,
2013-01-08 23:33:00,29.7,26.6,30.31,SSW,207,0.0,0.0,88,0.00,,---,0.03,VWS V14.01,2013-01-09 04:33:00,
2013-01-08 23:38:00,29.7,26.6,30.31,SSW,207,0.0,0.0,88,0.00,,---,0.03,VWS V14.01,2013-01-09 04:38:00,
2013-01-08 23:43:00,29.7,26.6,30.31,SSW,207,0.0,0.0,88,0.00,,---,0.03,VWS V14.01,2013-01-09 04:43:00,
2013-01-08 23:48:00,29.9,27.1,30.31,SSW,207,0.0,0.0,89,0.00,,---,0.03,VWS V14.01,2013-01-09 04:48:00,
2013-01-08 23:53:00,29.9,27.1,30.31,SSW,207,0.0,0.0,89,0.00,,---,0.03,VWS V14.01,2013-01-09 04:53:00,
2013-01-08 23:58:00,29.9,27.1,30.30,SSW,207,0.0,0.0,89,0.00,,---,0.00,VWS V14.01,2013-01-09 04:58:00,